Showing default

IRIDIUM 107, 42960

Orbit data source: Space-Track

IRIDIUM 107, 42960 is a payload satellite owned by Iridium (US) in LEO that was launched on Mon, 09 Oct 2017 UTC via an FALCON 9 launch vehicle from the Air Force Western Test Range (AFWTR). Payloads include a variety of satellites, spacecraft, and rockets equipped with specific instruments for various scientific and technological missions. These include communications satellites like Starlink; space stations such as the ISS; scientific satellites like the Hubble; Earth observation satellites from companies like Planet Labs, Umbra, and HawkEye 360; GPS; miniature CubeSats for education and research; and military/defense satellites.

Loading next visibility...
IRIDIUM 107 details
Identifier
42960, 2017-061F
Orbit
LEO
Last TLE update11 hours ago
Origin
Flag of USIridium (US)
ManufacturerOATK SSG Gilbert
MissionOperational Commercial Communications
Bus & MotorELITEBUS, Unknown motor
Mass860 kg wet, 700 kg dry
Launch date (UTC)
2017-10-09 (7 years ago)
Launch vehicle
FALCON 9
Launch site
Air Force Western Test Range (AFWTR)
Object type
Payload
Rocket body
Debris
Shape & HBRTrap Box + 2 Pan, 9.4 m
Radar Cross Section14.423 m², Large (>1 m²)

Expand to show TLE details & history

TLE from 11 hours ago
0 IRIDIUM 107
1 42960U 17061F   24346.50928947  .00000204  00000-0  65655-4 0  9996
2 42960  86.3973 256.1792 0001819  73.1206 287.0189 14.34218636375603
Epoch: 2024-12-11T12:13Z
Definitive object data (Epoch: 2024-12-11T12:13:22.61Z)
Latitude-0.00002°
Longitude-7.86796°
Altitude780.334 km
Speed7.464 km/s
True Right ascension17h 04m 43s
True Declination0° 00' 00"
Sunlit
Object was in daylight at TLE epoch
Visualization TLE readout
Latitude10.62535°
Longitude171.27022°
Altitude780.135 km
Speed7.465 km/s
Apparent Right ascension06h 47m 33s
Apparent Declination-15° 21' 17"
Sunlit
Object is in full shadow
Visualization observer readout
Local Sidereal Time21:27:29
Azimuth66.375° ENE
Elevation-47.444°
Doppler factor1
Orbital elements
Apogee altitude775.93 km
Perigee altitude773.328 km
Semi-major axis7,152.766 km
Eccentricity0.0001819
Inclination86.3973°
RAAN256.1792°
Arg. of periapsis73.1206°
True anomaly286.99897°
Mean anomaly287.0189°
Eccentric anomaly287.00893°
Mean motion3.58783 °/min
BSTAR0.000065655
Orbital period100.34 mins
Loading maneuver chart data...
Loading historical data...
Loading historical data...
Loading historical data...
Loading historical data...
Loading historical data...
Loading historical data...
Loading historical data...

IRIDIUM 107 Visibility forecast

Observer location: undefined°, undefined

Span
Click to sort rows by Start time (UTC) header in descending order
Start Az.
Max El. time (UTC)
Max El. Az.
Max El.
End time (UTC)
End Az.
8 mins2024-12-12 05:32:22.736Z19.647° NNE2024-12-12 05:36:22.736Z71.09° E26.519°2024-12-12 05:40:22.736Z134.966° SE
7 mins2024-12-12 07:14:22.736Z324.484° NNW2024-12-12 07:17:22.736Z277.335° WNW25.623°2024-12-12 07:21:22.736Z221.268° SW
8 mins2024-12-12 18:29:22.736Z166.615° S2024-12-12 18:33:22.736Z57.521° ENE41.455°2024-12-12 18:37:22.736Z9.631° NNE
|